Погода в Мустафине

Россия / Оренбургская область     52°50′09″N   54°46′45″E
темп.,
°C
ветер,
м/с
пор.,
м/с
влажн.,
%
обл.,
%
осадки,
мм/ч
давл.,
гПа
погр.,
м
19 апреля, пн
пн1923:00+9св7125866 0.0 1018380
02:00+6в813663 0.0 1019568
05:00+4в8145842 0.0 1021617
08:00+3в8135595 0.0 1023781
11:00+2в91349100 0.0 1025793
14:00+4вюв81057100 0.0 1026951
17:00+7вюв7941100 0.0 10251432
20:00+6вюв71039100 0.0 1026910
20 апреля, вт
вт2023:00+3в81339100 0.0 1028708
02:00+1вюв7124274 0.0 1030692
05:00−1в6124622 0.0 1031587
08:000в711400 0.0 1032805
11:00+3вюв810290 0.0 10321128
14:00+7вюв78250 0.0 10311374
17:00+8вюв67250 0.0 10301506
20:00+6юв48350 0.0 1030264
21 апреля, ср
ср2123:00+4юв51145100 0.0 1031329
02:00+2юв4115198 0.0 1032300
05:000юв4105693 0.0 1032252
08:00+2юв61247100 0.0 1033524
11:00+6юв7103177 0.0 1032895
14:00+10ююв8102616 0.0 10301153
17:00+11ююв8102583 0.0 10291431
20:00+9юв61138100 0.0 1030442
22 апреля, чт
чт2223:00+6юв71450100 0.0 1030458
02:00+5юв61453100 0.0 1030426
05:00+4ююв51260100 0.1 1031535
08:00+4ююв51063100 0.2 1031551
11:00+8ююв81139100 0.2 1031804
14:00+10ююв81135100 0.1 10311237
17:00+10ю6946100 0.1 10311281
20:00+7ююз3560100 0.2 1032310
23 апреля, пт
пт2323:00+7ююв3663100 0.2 1032178
02:00+6юз3876100 0.1 1031319
05:00+6юв2582100 0.8 1031356
08:00+5ююв4889100 1.6 1032804
11:00+7юв458098 1.7 1031535
14:00+12юв5648100 0.1 10291425
17:00+15ю5637100 0.1 10272127
20:00+11ю61054100 0.0 1027483